TimeCST,TemperatureF,Dew PointF,Humidity,Sea Level PressureIn,VisibilityMPH,Wind Direction,Wind SpeedMPH,Gust SpeedMPH,PrecipitationIn,Events,Conditions,WindDirDegrees,DateUTC
12:54 AM,35.6,23.0,60,30.20,10.0,NW,10.4,-,N/A,,Clear,320,2013-03-06 06:54:00
1:54 AM,36.0,21.9,57,30.22,10.0,NW,18.4,23.0,N/A,,Clear,320,2013-03-06 07:54:00
2:54 AM,35.1,23.0,61,30.21,10.0,NW,10.4,-,N/A,,Scattered Clouds,320,2013-03-06 08:54:00
3:54 AM,35.1,21.9,59,30.23,10.0,NW,11.5,-,N/A,,Mostly Cloudy,310,2013-03-06 09:54:00
4:54 AM,34.0,23.0,64,30.25,10.0,NW,8.1,-,N/A,,Mostly Cloudy,310,2013-03-06 10:54:00
5:54 AM,34.0,23.0,64,30.27,10.0,NNW,11.5,-,N/A,,Overcast,330,2013-03-06 11:54:00
6:54 AM,35.1,19.9,54,30.30,10.0,NNW,17.3,27.6,N/A,,Mostly Cloudy,340,2013-03-06 12:54:00
7:54 AM,36.0,21.9,57,30.33,10.0,NNW,11.5,19.6,N/A,,Overcast,330,2013-03-06 13:54:00
8:54 AM,37.0,21.9,54,30.35,10.0,NNW,13.8,24.2,N/A,,Overcast,340,2013-03-06 14:54:00
9:54 AM,39.0,21.9,50,30.36,10.0,North,13.8,-,N/A,,Overcast,360,2013-03-06 15:54:00
10:22 AM,39.2,23.0,52,30.36,10.0,NNW,12.7,-,N/A,,Overcast,340,2013-03-06 16:22:00
10:55 AM,40.6,16.9,38,30.38,10.0,North,13.8,-,N/A,,Mostly Cloudy,350,2013-03-06 16:55:00
11:27 AM,41.0,23.0,49,30.37,10.0,North,11.5,18.4,N/A,,Mostly Cloudy,10,2013-03-06 17:27:00
11:54 AM,42.1,25.0,51,30.36,10.0,North,10.4,-,N/A,,Mostly Cloudy,350,2013-03-06 17:54:00
12:47 PM,42.8,24.8,49,30.35,10.0,NNW,8.1,17.3,N/A,,Scattered Clouds,340,2013-03-06 18:47:00
12:54 PM,44.1,25.0,47,30.35,10.0,NNE,11.5,16.1,N/A,,Scattered Clouds,20,2013-03-06 18:54:00
1:54 PM,45.0,25.0,46,30.33,10.0,NNE,6.9,-,N/A,,Partly Cloudy,20,2013-03-06 19:54:00
2:54 PM,46.9,26.1,44,30.32,10.0,North,8.1,-,N/A,,Partly Cloudy,350,2013-03-06 20:54:00
3:54 PM,45.0,25.0,46,30.32,10.0,North,8.1,-,N/A,,Partly Cloudy,350,2013-03-06 21:54:00
4:54 PM,45.0,26.1,48,30.31,10.0,NNE,8.1,-,N/A,,Partly Cloudy,20,2013-03-06 22:54:00
5:54 PM,42.1,26.1,53,30.32,10.0,NNW,6.9,-,N/A,,Partly Cloudy,330,2013-03-06 23:54:00
6:54 PM,39.9,27.0,60,30.33,10.0,North,8.1,-,N/A,,Partly Cloudy,10,2013-03-07 00:54:00
7:54 PM,39.9,27.0,60,30.32,10.0,NE,6.9,-,N/A,,Clear,50,2013-03-07 01:54:00
8:54 PM,39.0,27.0,62,30.34,10.0,ENE,5.8,-,N/A,,Scattered Clouds,70,2013-03-07 02:54:00
9:54 PM,37.0,27.0,67,30.33,10.0,East,4.6,-,N/A,,Mostly Cloudy,100,2013-03-07 03:54:00
10:54 PM,37.9,27.0,65,30.32,10.0,ENE,6.9,-,N/A,,Scattered Clouds,70,2013-03-07 04:54:00
11:54 PM,36.0,26.1,67,30.31,10.0,East,6.9,-,N/A,,Clear,100,2013-03-07 05:54:00